287  
ASUS41 KALY 300910  
RWRALY  
 
NEW YORK STATE HOURLY WEATHER ROUNDUP  
NATIONAL WEATHER SERVICE ALBANY NY  
500 AM EDT TUE MAY 30 2017  
 
NOTE: "FAIR" INDICATES FEW OR NO CLOUDS BELOW 12,000 FEET WITH NO  
SIGNIFICANT WEATHER AND/OR NO S TO VISIBILITY
.  
 
NYZ032-033-038>043-046>054-057>066-NYZ062>081-082-084-301000-  
EAST  
 
 
CITY SKY/WX TMP DP RH WIND PRES REMARKS
 
ALBANY CLOUDY 56 51 84 S10 30.07F  
GLENS FALLS NOT AVBL  
POUGHKEEPSIE CLOUDY 54 52 93 SE3 30.11S  
NEWBURGH CLOUDY 54 54 100 CALM 30.13R  
MONTGOMERY CLOUDY 55 54 96 S3 30.10F  
WHITE PLAINS DRIZZLE 54 52 93 SE7 30.13R  
ISLIP CLOUDY 54 52 93 E3 30.14S  
NEW YORK CITY CLOUDY 56 52 86 SE7 30.13S  
CENTRAL PARK CLOUDY 55 53 93 VRB3 30.16R  

 
 
NYZ005>009-017-018-044>046-055-056-301000-  
CENTRAL  
 
 
CITY SKY/WX TMP DP RH WIND PRES REMARKS
 
FULTON MOCLDY 59 56 89 VRB3 29.94R  
SYRACUSE PTCLDY 59 57 93 SE9 29.94R  
ROME CLOUDY 57 55 93 E8 30.01S  
ELMIRA CLOUDY 51 50 96 CALM 29.98S FOG  
BINGHAMTON CLOUDY 55 55 100 S9 30.02S  
MONTICELLO CLOUDY 52 52 100 S7 30.11S  

 
 
NYZ026>034-041>043-087-301000-  
NORTH  
 
 
CITY SKY/WX TMP DP RH WIND PRES REMARKS
 
WATERTOWN PTCLDY 59 55 87 W8 29.93R  
FORT DRUM NOT AVBL  
OGDENSBURG FAIR 57 55 92 S6 29.91S  
MASSENA PTCLDY 53 53 100 NE3 29.94R  
SARANAC LAKE MOCLDY 38 38 100 CALM 29.98R  
PLATTSBURGH PTCLDY 54 50 86 S9 29.99S  

 
 
NYZ001>004-010>016-019>021-085-301000-  
WEST  
 
 
CITY SKY/WX TMP DP RH WIND PRES REMARKS
 
NIAGARA FALLS CLOUDY 60 53 77 S3 29.89S  
BUFFALO MOCLDY 58 54 86 S6 29.91S  
DUNKIRK CLOUDY 57 55 93 S8 29.92R  
JAMESTOWN CLOUDY 55 52 88 S8 29.97R  
WELLSVILLE PTCLDY 61 50 67 VRB3 30.00R  
ROCHESTER MOCLDY 60 56 86 SW6 29.92F THUNDER  
PENN YAN CLEAR 59 52 77 S9 29.95S  

 
 
KEY  
WCI = WIND CHILL INDEX  
VSB = VISIBILITY  
HX = HEAT INDEX  

 
 
 
CLICK HERE TO GO TO PREVIOUS BULLETINS.

The Nexlab NY Page
The Nexlab VT Page
The Nexlab MA Page
The Nexlab CT Page Main Text Page